Home   Weather   Koszalin   Past weeks

Flag for Poland Past Weather in Koszalin, Poland — Yesterday and Last 2 Weeks

Now
43 °F

Overcast.


Feels Like: 42 °F
Forecast: 32 / 42 °F
Wind: 3 mph from Southwest

Location: Koszalin

Current Time: Feb 23, 2017 at 5:09:31 pm

Latest Report: Feb 23, 2017 at 4:00 pm


Visibility: 11 mi

Pressure: 29.23 "Hg

Humidity: 73%

Dew Point: 35 °F

Location of KoszalinLocation

Past Weather in Koszalin — Graph

°F

Koszalin Temperature Yesterday

Maximum temperature yesterday: 47 °F (at 1:00 pm)
Minimum temperature yesterday: 38 °F (at 5:00 am)
Average temperature yesterday: 42 °F

High & Low Weather Summary for the Past Weeks

 TemperatureHumidityPressure
High53 °F (Feb 15, 3:00 pm)100% (Feb 18, 10:00 am)30.76 "Hg (Feb 18, 10:00 am)
Low18 °F (Feb 9, 4:00 am)27% (Feb 11, 12:00 pm)29.23 "Hg (Feb 23, 3:00 am)
Average33 °F76%30.22 "Hg
* Reported Feb 8 3:00 pm — Feb 23 3:00 pm, Koszalin, Weather by CustomWeather, © 2017

Note: Actual official high and low records may vary slightly from our data, if they occured in-between our weather recording intervals... More about our weather records

Advertising

Koszalin Weather History for the Previous 24 Hours

Scroll right to see more
 ConditionsComfort  
Time TempWeatherWind HumidityBarometerVisibility
3:00 pm
Thu, Feb 23
44 °FOvercast.5 mph69%29.29 "Hg10 mi
2:00 pm44 °FOvercast.6 mph70%29.32 "Hg14 mi
1:00 pm44 °FOvercast.7 mph67%29.35 "Hg14 mi
12:00 pm43 °FOvercast.7 mph68%29.35 "Hg12 mi
11:00 am43 °FOvercast.8 mph69%29.38 "Hg12 mi
10:00 am43 °FOvercast.9 mph71%29.35 "Hg12 mi
9:00 am43 °FOvercast.9 mph70%29.35 "Hg12 mi
8:00 am42 °FOvercast.9 mph70%29.32 "Hg13 mi
7:00 am42 °FOvercast.10 mph70%29.29 "Hg13 mi
6:00 am42 °FOvercast.12 mph68%29.26 "Hg12 mi
5:00 am42 °FOvercast.12 mph69%29.26 "Hg15 mi
4:00 am42 °FOvercast.12 mph72%29.23 "Hg16 mi
3:00 am42 °FOvercast.9 mph70%29.23 "Hg15 mi
2:00 am41 °FOvercast.10 mph72%29.26 "Hg16 mi
1:00 am41 °FPassing clouds.8 mph73%29.26 "Hg15 mi
12:00 am41 °FOvercast.8 mph76%29.26 "Hg11 mi
11:00 pm
Wed, Feb 22
41 °FOvercast.9 mph74%29.29 "Hg11 mi
10:00 pm42 °FPassing clouds.8 mph71%29.29 "Hg13 mi
9:00 pm41 °FPassing clouds.7 mph71%29.26 "Hg12 mi
8:00 pm42 °FOvercast.7 mph72%29.26 "Hg14 mi
7:00 pm42 °FOvercast.6 mph73%29.29 "Hg14 mi
6:00 pm43 °FOvercast.8 mph71%29.29 "Hg17 mi
5:00 pm43 °FPartly sunny.7 mph70%29.29 "Hg17 mi
Weather by CustomWeather, © 2017

See weather overviewHow to use our weather pages